[[{"header":{"parameterUnit":"m.s-1","parameterCategory":1,"la1":30.2991,"la2":30.254,"lo1":-89.0895,"lo2":-89.0444,"dy":0.0017,"dx":0.0017,"nx":28,"ny":28,"refTime":"2024-03-20T09:00:00:Z","depth":0,"parameterNumber":2,"parameterNumberName":"U-component_of_WINDS"},"data":[0,0,0,0,0,0,0,0,0,0,0,0,0,0,0,0,0,0,0,0,0,0,0,0,0,0,0,0,0,0,0,0,0,0,0,0,0,0,0,0,0,0,0,0,0,0,0,0,0,0,0,0,0,0,0,0,0,0,1.0439,1.0439,0,1.046,1.0461,1.0461,1.045,1.045,1.0449,1.0449,1.0469,1.047,1.0471,0,0,0,0,0,0,0,0,0,0,0,0,0,1.0387,1.0388,1.0439,1.0439,1.044,1.046,1.0461,1.0461,1.0451,1.045,1.0449,1.0449,1.0469,1.047,1.0472,0,0,0,0,0,0,0,0,0,0,0,0,0,1.0409,1.0389,1.0439,1.0437,1.0437,1.046,1.0461,1.0461,1.0451,1.045,1.0449,1.0448,1.0469,1.047,1.0472,1.0498,0,0,1.0477,1.0477,0,0,0,0,0,0,0,0,1.0408,1.0411,1.0437,1.0437,1.0437,1.0452,1.045,1.0473,1.0451,1.0445,1.0449,1.0448,1.0464,1.0466,1.0472,1.0499,1.05,1.0477,1.0478,1.0478,1.0479,0,0,0,0,0,0,0,1.0407,1.041,1.0448,1.0437,1.0438,1.0434,1.0436,1.0454,1.0459,1.0446,1.0445,1.0448,1.0464,1.047,1.0472,1.05,1.0477,1.0478,1.0479,1.048,1.0548,1.0548,0,0,0,0,0,0,1.0405,1.0409,1.0447,1.0448,1.042,1.0436,1.0438,1.0448,1.0459,1.046,1.0449,1.0447,1.0468,1.047,1.0473,1.0503,1.0478,1.048,1.0481,1.0547,1.0548,1.0549,0,0,0,0,0,0,1.0404,1.0409,1.0446,1.0428,1.0433,1.0438,1.0449,1.0449,1.0455,1.0461,1.0462,1.0454,1.0467,1.0471,1.0491,1.0503,1.0481,1.0482,1.0546,1.0547,1.0548,1.0563,0,0,0,0,0,0,1.0403,1.0409,1.0419,1.0429,1.0434,1.0465,1.0449,1.045,1.0458,1.0457,1.0466,1.0467,1.0467,1.0489,1.0493,1.0505,1.0483,1.0545,1.0546,1.0548,1.0562,1.0565,1.0568,0,0,0,0,0,1.0401,1.0423,1.042,1.0424,1.0447,1.0466,1.0468,1.0468,1.0459,1.0469,1.0473,1.0467,1.0502,1.0491,1.0496,1.0508,1.0544,1.0546,1.0548,1.056,1.0564,1.0568,0,0,0,0,0,0,1.0414,1.0424,1.0421,1.0446,1.0455,1.0464,1.0477,1.0473,1.0484,1.0482,1.0481,1.0483,1.0504,1.0509,1.0497,1.0533,1.0521,1.0524,1.0529,1.0533,1.0536,1.0534,1.0485,0,0,0,0,0,1.042,1.0435,1.0442,1.0464,1.0469,1.0472,1.048,1.0479,1.0488,1.0491,1.0497,1.0505,1.0517,1.0526,1.0538,1.0563,1.0564,1.0574,1.0577,1.0579,1.0581,1.0592,1.0596,1.0555,1.0555,1.0555,0,0,1.0433,1.044,1.0449,1.0467,1.0474,1.0488,1.0475,1.0491,1.0501,1.0494,1.0513,1.0517,1.0526,1.0549,1.0559,1.0553,1.0593,1.0581,1.0583,1.0584,1.0595,1.0599,1.0602,1.0556,1.0556,1.0556,0,0,1.0462,1.047,1.0488,1.0494,1.0505,1.0506,1.0511,1.052,1.0522,1.0542,1.0536,1.0548,1.057,1.0576,1.0582,1.0613,1.0607,1.0617,1.0632,1.0643,1.0646,1.0649,1.0658,1.0662,1.0619,1.0619,1.0619,0,1.0476,1.0497,1.0497,1.0513,1.052,1.0515,1.0532,1.0539,1.0552,1.0557,1.055,1.0577,1.0583,1.0606,1.0613,1.0619,1.0623,1.0615,1.0646,1.0649,1.0651,1.066,1.0663,1.062,1.062,1.062,1.062,0,1.0513,1.0528,1.0541,1.0554,1.0563,1.0579,1.0581,1.059,1.0588,1.059,1.0609,1.0616,1.0629,1.0634,1.0633,1.0657,1.0652,1.0646,1.0634,1.0656,1.0664,1.0668,1.0621,1.0621,1.0621,1.0621,0,0,1.0551,1.0563,1.0567,1.0572,1.0583,1.0594,1.061,1.0622,1.0629,1.0639,1.0651,1.0669,1.0663,1.067,1.0669,1.0679,1.07,1.0671,1.0671,1.0675,1.0725,1.0728,1.0732,1.0697,1.0698,1.0698,1.0723,0,1.0579,1.0607,1.0607,1.0632,1.0645,1.0639,1.0652,1.066,1.0662,1.0673,1.0675,1.0687,1.0679,1.0683,1.0693,1.0696,1.071,1.0694,1.0707,1.0707,1.0703,1.0737,1.0741,1.0764,1.0726,1.0727,1.0727,0,1.0616,1.0626,1.0652,1.0659,1.0665,1.0677,1.0687,1.0698,1.0706,1.0707,1.0714,1.0711,1.0726,1.0714,1.0734,1.0723,1.0728,1.073,1.0731,1.0731,1.0718,1.0736,1.0771,1.0774,1.0733,1.0732,1.0732,0,1.0638,1.0659,1.0677,1.0681,1.0691,1.0699,1.0703,1.071,1.0717,1.0726,1.073,1.0741,1.0747,1.0755,1.0755,1.0746,1.0774,1.0763,1.0774,1.0774,1.0779,1.0778,1.0814,1.0785,1.0785,1.0785,1.0785,0,1.0669,1.0685,1.0687,1.0698,1.0715,1.0714,1.0731,1.0734,1.0741,1.0751,1.0747,1.0757,1.0757,1.0767,1.0767,1.0782,1.0785,1.0785,1.0785,1.0785,1.0785,1.0787,1.0785,1.0786,1.0786,1.0785,1.0785,0,1.0696,1.0699,1.0717,1.0724,1.0727,1.0739,1.0744,1.0754,1.0756,1.0769,1.0773,1.0775,1.0787,1.0788,1.0801,1.0801,1.0819,1.0817,1.0816,1.0815,1.0826,1.0824,1.0863,1.0868,1.0837,1.0838,1.0838,0,1.0715,1.0727,1.0735,1.0742,1.0747,1.0758,1.0765,1.0765,1.0772,1.0781,1.0789,1.08,1.0809,1.0827,1.083,1.084,1.0837,1.085,1.0839,1.0838,1.0835,1.0834,1.0835,1.0852,1.0853,1.0853,1.0853,0,1.0747,1.0747,1.0758,1.0768,1.0776,1.0784,1.0792,1.0797,1.0798,1.0806,1.0818,1.0824,1.0837,1.0848,1.0857,1.0861,1.0856,1.0857,1.086,1.0859,1.0857,1.0856,1.082,1.0856,1.0855,1.0855,1.0855,1.0855,1.077,1.0779,1.0786,1.0797,1.0803,1.081,1.0819,1.0822,1.0831,1.0842,1.0841,1.0854,1.086,1.0872,1.0876,1.0885,1.0881,1.0885,1.0886,1.0887,1.0887,1.0857,1.0887,1.0887,1.0887,1.0887,1.0887,0,1.08,1.0804,1.0814,1.0825,1.0833,1.0829,1.0837,1.0844,1.0855,1.0861,1.0869,1.0882,1.0892,1.0895,1.0904,1.0911,1.0909,1.0913,1.0912,1.0912,1.0891,1.0887,1.0914,1.0914,1.0914,1.0914,1.0914,1.0914,1.0817,1.0832,1.0833,1.0851,1.0855,1.0867,1.0871,1.0877,1.0882,1.0896,1.0904,1.0907,1.0911,1.0921,1.0929,1.093,1.0933,1.0937,1.0937,1.0917,1.0914,1.0911,1.0907,1.0939,1.0939,1.0957,1.0958,1.0958]},{"header":{"parameterUnit":"m.s-1","parameterCategory":1,"la1":30.2991,"la2":30.254,"lo1":-89.0895,"lo2":-89.0444,"dy":0.0017,"dx":0.0017,"nx":28,"ny":28,"refTime":"2024-03-20T09:00:00:Z","depth":0,"parameterNumber":3,"parameterNumberName":"V-component_of_WINDS"},"data":[0,0,0,0,0,0,0,0,0,0,0,0,0,0,0,0,0,0,0,0,0,0,0,0,0,0,0,0,0,0,0,0,0,0,0,0,0,0,0,0,0,0,0,0,0,0,0,0,0,0,0,0,0,0,0,0,0,0,-0.0287,-0.0287,0,-0.0261,-0.026,-0.026,-0.0278,-0.0278,-0.0279,-0.028,-0.0253,-0.0252,-0.025,0,0,0,0,0,0,0,0,0,0,0,0,0,-0.0353,-0.0352,-0.0287,-0.0287,-0.0286,-0.0261,-0.026,-0.026,-0.0278,-0.0279,-0.0279,-0.028,-0.0254,-0.0252,-0.025,0,0,0,0,0,0,0,0,0,0,0,0,0,-0.0325,-0.0351,-0.0287,-0.0292,-0.0292,-0.0261,-0.026,-0.026,-0.0277,-0.0279,-0.028,-0.0281,-0.0254,-0.0252,-0.025,-0.0212,0,0,-0.0243,-0.0242,0,0,0,0,0,0,0,0,-0.0327,-0.0323,-0.0292,-0.0292,-0.0292,-0.0274,-0.0274,-0.0244,-0.0277,-0.0283,-0.028,-0.0281,-0.0259,-0.0257,-0.0249,-0.0211,-0.021,-0.0243,-0.0242,-0.0241,-0.024,0,0,0,0,0,0,0,-0.0329,-0.0324,-0.0277,-0.0291,-0.0291,-0.0296,-0.0293,-0.0268,-0.0265,-0.0283,-0.0284,-0.028,-0.0259,-0.0251,-0.0249,-0.021,-0.0243,-0.0241,-0.024,-0.0239,-0.0141,-0.014,0,0,0,0,0,0,-0.033,-0.0326,-0.0277,-0.0276,-0.0313,-0.0294,-0.0291,-0.0278,-0.0265,-0.0264,-0.0279,-0.0281,-0.0254,-0.0251,-0.0248,-0.0203,-0.0241,-0.0239,-0.0238,-0.0142,-0.0141,-0.0139,0,0,0,0,0,0,-0.0332,-0.0326,-0.0278,-0.0301,-0.0295,-0.0291,-0.0277,-0.0277,-0.0269,-0.0263,-0.0262,-0.0272,-0.0255,-0.0251,-0.0221,-0.0203,-0.0238,-0.0236,-0.0144,-0.0142,-0.014,-0.0114,0,0,0,0,0,0,-0.0333,-0.0326,-0.0311,-0.0301,-0.0294,-0.0252,-0.0276,-0.0276,-0.0265,-0.0267,-0.0255,-0.0254,-0.0256,-0.0224,-0.0219,-0.02,-0.0234,-0.0145,-0.0143,-0.0141,-0.0117,-0.0112,-0.0107,0,0,0,0,0,-0.0336,-0.0305,-0.0311,-0.0305,-0.0276,-0.0251,-0.0247,-0.025,-0.0263,-0.0249,-0.0245,-0.0255,-0.0206,-0.0221,-0.0215,-0.0196,-0.0147,-0.0144,-0.0141,-0.0119,-0.0113,-0.0107,0,0,0,0,0,0,-0.0313,-0.0304,-0.031,-0.0274,-0.0263,-0.0254,-0.0236,-0.0243,-0.0228,-0.023,-0.0234,-0.0231,-0.0201,-0.0195,-0.0213,-0.0159,-0.0178,-0.0174,-0.0164,-0.0158,-0.0153,-0.0155,-0.0232,0,0,0,0,0,-0.0304,-0.0285,-0.0278,-0.0247,-0.0242,-0.024,-0.0229,-0.0232,-0.0221,-0.0216,-0.021,-0.0199,-0.0181,-0.0169,-0.0152,-0.0116,-0.0114,-0.01,-0.0095,-0.0091,-0.0088,-0.0069,-0.0063,-0.013,-0.013,-0.013,0,0,-0.0285,-0.0278,-0.0265,-0.0243,-0.0234,-0.0215,-0.0235,-0.0213,-0.0199,-0.0213,-0.0184,-0.018,-0.0168,-0.0135,-0.012,-0.013,-0.0069,-0.0088,-0.0085,-0.0083,-0.0065,-0.0059,-0.0053,-0.0128,-0.0128,-0.0128,0,0,-0.0241,-0.0233,-0.0207,-0.0199,-0.0186,-0.0186,-0.0179,-0.0169,-0.0167,-0.0139,-0.0149,-0.0132,-0.0101,-0.0092,-0.0084,-0.0038,-0.0046,-0.0032,-0.0007,0.0011,0.0016,0.0021,0.0037,0.0043,-0.0029,-0.0029,-0.0028,0,-0.0219,-0.0189,-0.0193,-0.017,-0.0161,-0.0173,-0.0147,-0.0139,-0.0121,-0.0114,-0.0125,-0.0088,-0.008,-0.0046,-0.0035,-0.0028,-0.0021,-0.0033,0.0016,0.002,0.0025,0.004,0.0046,-0.0027,-0.0027,-0.0027,-0.0027,0,-0.0163,-0.0143,-0.0123,-0.0107,-0.0095,-0.0071,-0.0071,-0.0059,-0.0063,-0.0062,-0.0034,-0.0025,-0.0008,0.0,-0.0004,0.0034,0.0027,0.0016,-0.0003,0.0033,0.0047,0.0053,-0.0025,-0.0025,-0.0026,-0.0026,0,0,-0.0102,-0.0089,-0.0082,-0.0075,-0.0063,-0.0048,-0.0025,-0.0008,0.0003,0.0015,0.0034,0.0059,0.0049,0.0058,0.0055,0.0071,0.0106,0.0058,0.0058,0.0066,0.0147,0.0156,0.0162,0.01,0.0102,0.0102,0.0146,0,-0.0057,-0.0017,-0.0021,0.0017,0.0036,0.0024,0.0044,0.0053,0.0055,0.007,0.0072,0.009,0.0075,0.0081,0.0096,0.0099,0.0122,0.0096,0.0118,0.0119,0.0115,0.017,0.0179,0.022,0.0152,0.0152,0.0153,0,0.0001,0.0014,0.0054,0.0062,0.007,0.0088,0.0102,0.0118,0.0127,0.0128,0.0138,0.0131,0.0154,0.0134,0.0164,0.0146,0.0154,0.0157,0.0159,0.0161,0.0138,0.0174,0.0233,0.0239,0.0162,0.0161,0.0161,0,0.0041,0.0069,0.0096,0.0102,0.0112,0.0125,0.013,0.0139,0.0149,0.0161,0.0168,0.0183,0.0191,0.0203,0.0201,0.0186,0.0232,0.0211,0.0232,0.0232,0.0243,0.0242,0.0304,0.0248,0.0248,0.0248,0.0248,0,0.0092,0.0116,0.0114,0.0131,0.0157,0.0153,0.0179,0.0183,0.019,0.0207,0.0197,0.0213,0.0209,0.0225,0.0223,0.0248,0.0252,0.0252,0.0252,0.0253,0.0253,0.0259,0.0256,0.025,0.0249,0.0249,0.0249,0,0.0141,0.0141,0.0169,0.0176,0.0178,0.0198,0.0204,0.0219,0.022,0.0241,0.0245,0.0246,0.0264,0.0263,0.0283,0.0281,0.0312,0.0308,0.0309,0.0308,0.0329,0.0327,0.0398,0.0406,0.0344,0.0345,0.0345,0,0.0174,0.0193,0.0201,0.0211,0.0217,0.0234,0.0244,0.024,0.025,0.0262,0.0276,0.0293,0.0306,0.0334,0.0337,0.0352,0.0348,0.0371,0.035,0.0351,0.0348,0.0347,0.0348,0.0376,0.0376,0.0377,0.0377,0,0.0232,0.023,0.0245,0.0259,0.0271,0.0283,0.0293,0.0302,0.0298,0.0311,0.0328,0.0338,0.0358,0.0375,0.0389,0.0393,0.0385,0.0384,0.039,0.0392,0.0391,0.0392,0.0321,0.0383,0.0382,0.0382,0.0381,0.0381,0.0274,0.0289,0.0298,0.0314,0.0321,0.033,0.0345,0.0347,0.0362,0.0377,0.0374,0.0393,0.0402,0.0419,0.0425,0.044,0.0432,0.044,0.0442,0.0444,0.0446,0.0389,0.0443,0.0443,0.0442,0.0442,0.0442,0,0.0331,0.0335,0.035,0.0364,0.0377,0.0368,0.0378,0.0389,0.0407,0.0415,0.0428,0.0448,0.0463,0.0466,0.0481,0.0492,0.0489,0.0496,0.0496,0.0497,0.0453,0.0447,0.0499,0.0499,0.0499,0.0499,0.0499,0.0499,0.0362,0.0388,0.0387,0.0415,0.042,0.0439,0.0445,0.0454,0.046,0.0483,0.0495,0.0497,0.0503,0.0518,0.0531,0.0532,0.0538,0.0547,0.0546,0.0505,0.05,0.0494,0.0488,0.0548,0.0548,0.0588,0.0588,0.0588]}]]